TimeCDT,TemperatureF,Dew PointF,Humidity,Sea Level PressureIn,VisibilityMPH,Wind Direction,Wind SpeedMPH,Gust SpeedMPH,PrecipitationIn,Events,Conditions,WindDirDegrees,DateUTC
12:15 AM,53.6,31.1,42,29.90,10.0,West,8.1,-,N/A,,Clear,270,2013-10-03 05:15:00
12:35 AM,52.0,31.6,46,29.90,10.0,West,6.9,-,N/A,,Clear,260,2013-10-03 05:35:00
12:55 AM,52.3,32.0,46,29.90,10.0,SSE,3.5,-,N/A,,Clear,150,2013-10-03 05:55:00
1:15 AM,52.2,31.6,46,29.90,10.0,ESE,6.9,-,N/A,,Clear,110,2013-10-03 06:15:00
1:35 AM,52.3,31.5,45,29.89,10.0,SSE,6.9,-,N/A,,Clear,150,2013-10-03 06:35:00
1:55 AM,56.1,29.1,36,29.90,10.0,South,8.1,-,N/A,,Clear,180,2013-10-03 06:55:00
2:15 AM,56.3,29.3,36,29.90,10.0,South,6.9,-,N/A,,Clear,180,2013-10-03 07:15:00
2:35 AM,55.4,29.1,37,29.90,10.0,South,9.2,-,N/A,,Clear,180,2013-10-03 07:35:00
2:55 AM,57.0,28.8,34,29.90,10.0,South,9.2,-,N/A,,Clear,180,2013-10-03 07:55:00
3:15 AM,57.6,29.1,34,29.89,10.0,South,8.1,-,N/A,,Clear,190,2013-10-03 08:15:00
3:35 AM,59.2,29.7,33,29.89,10.0,SSW,8.1,-,N/A,,Clear,200,2013-10-03 08:35:00
3:55 AM,56.7,30.6,37,29.88,10.0,SSW,5.8,-,N/A,,Clear,200,2013-10-03 08:55:00
4:15 AM,54.7,31.1,41,29.88,10.0,SSW,6.9,-,N/A,,Clear,200,2013-10-03 09:15:00
4:35 AM,55.6,31.1,39,29.88,10.0,SSW,9.2,-,N/A,,Clear,200,2013-10-03 09:35:00
4:55 AM,54.9,31.1,40,29.88,10.0,SSW,9.2,-,N/A,,Clear,210,2013-10-03 09:55:00
5:15 AM,54.0,31.3,42,29.88,10.0,SSW,10.4,-,N/A,,Clear,210,2013-10-03 10:15:00
5:35 AM,55.8,31.6,40,29.88,10.0,SSW,11.5,-,N/A,,Clear,210,2013-10-03 10:35:00
5:55 AM,56.3,31.6,39,29.87,10.0,SSW,10.4,-,N/A,,Clear,200,2013-10-03 10:55:00
6:15 AM,55.4,32.0,41,29.88,10.0,SSW,11.5,-,N/A,,Clear,200,2013-10-03 11:15:00
6:35 AM,54.5,32.4,43,29.88,10.0,SSW,8.1,-,N/A,,Clear,210,2013-10-03 11:35:00
6:55 AM,53.8,32.5,45,29.88,10.0,SSW,6.9,-,N/A,,Clear,210,2013-10-03 11:55:00
7:15 AM,53.1,32.5,46,29.88,10.0,SW,5.8,-,N/A,,Clear,220,2013-10-03 12:15:00
7:35 AM,50.7,32.5,50,29.88,10.0,West,4.6,-,N/A,,Clear,270,2013-10-03 12:35:00
7:55 AM,47.5,32.5,56,29.88,10.0,NW,3.5,-,N/A,,Clear,310,2013-10-03 12:55:00
8:15 AM,47.1,32.5,57,29.89,10.0,Calm,Calm,-,N/A,,Clear,0,2013-10-03 13:15:00
8:35 AM,51.1,33.6,51,29.90,7.0,SW,5.8,-,N/A,,Clear,220,2013-10-03 13:35:00
8:55 AM,57.7,34.3,41,29.91,10.0,WSW,8.1,-,N/A,,Clear,240,2013-10-03 13:55:00
9:15 AM,61.0,33.8,36,29.91,10.0,SW,5.8,-,N/A,,Clear,220,2013-10-03 14:15:00
9:35 AM,63.9,34.0,33,29.91,10.0,SW,8.1,-,N/A,,Clear,220,2013-10-03 14:35:00
9:55 AM,67.8,33.6,28,29.91,10.0,SW,9.2,-,N/A,,Clear,230,2013-10-03 14:55:00
10:15 AM,72.3,33.3,24,29.91,10.0,SW,10.4,-,N/A,,Clear,230,2013-10-03 15:15:00
10:35 AM,76.3,32.7,20,29.91,10.0,SW,10.4,-,N/A,,Clear,220,2013-10-03 15:35:00
10:55 AM,79.2,31.8,18,29.90,10.0,SW,13.8,-,N/A,,Clear,230,2013-10-03 15:55:00
11:15 AM,80.8,31.5,17,29.90,10.0,SW,13.8,21.9,N/A,,Clear,220,2013-10-03 16:15:00
11:35 AM,81.5,32.0,17,29.90,10.0,SW,15.0,23.0,N/A,,Clear,230,2013-10-03 16:35:00
11:55 AM,83.3,30.6,15,29.89,10.0,SSW,13.8,-,N/A,,Clear,210,2013-10-03 16:55:00
12:15 PM,85.1,30.6,14,29.89,10.0,SSW,17.3,21.9,N/A,,Clear,200,2013-10-03 17:15:00
12:35 PM,86.2,30.4,13,29.88,10.0,SSW,18.4,25.3,N/A,,Clear,210,2013-10-03 17:35:00
12:55 PM,86.5,30.0,13,29.87,10.0,SW,21.9,28.8,N/A,,Clear,220,2013-10-03 17:55:00
1:15 PM,87.3,27.7,12,29.87,10.0,SSW,21.9,28.8,N/A,,Clear,210,2013-10-03 18:15:00
1:35 PM,88.3,26.2,11,29.86,10.0,SW,24.2,31.1,N/A,,Clear,230,2013-10-03 18:35:00
1:55 PM,88.3,25.7,10,29.84,10.0,WSW,26.5,33.4,N/A,,Clear,240,2013-10-03 18:55:00
2:15 PM,89.6,25.0,10,29.84,7.0,WSW,26.5,38.0,N/A,,Clear,250,2013-10-03 19:15:00
2:35 PM,90.1,27.5,11,29.83,7.0,WSW,29.9,46.0,N/A,,Clear,240,2013-10-03 19:35:00
2:55 PM,89.8,29.1,11,29.82,10.0,SSW,27.6,35.7,N/A,,Clear,210,2013-10-03 19:55:00
3:15 PM,89.4,31.3,13,29.81,10.0,SW,27.6,35.7,N/A,,Clear,230,2013-10-03 20:15:00
3:35 PM,89.1,32.0,13,29.81,10.0,SW,21.9,32.2,N/A,,Clear,220,2013-10-03 20:35:00
3:55 PM,88.7,32.9,14,29.80,10.0,SSW,25.3,39.1,N/A,,Clear,210,2013-10-03 20:55:00
4:15 PM,88.7,33.1,14,29.80,10.0,SW,25.3,41.4,N/A,,Clear,220,2013-10-03 21:15:00
4:35 PM,88.9,33.4,14,29.80,10.0,SW,28.8,41.4,N/A,,Clear,230,2013-10-03 21:35:00
4:55 PM,88.7,32.5,13,29.80,10.0,SW,29.9,36.8,N/A,,Clear,230,2013-10-03 21:55:00
5:15 PM,88.7,32.0,13,29.79,10.0,SW,28.8,40.3,N/A,,Clear,220,2013-10-03 22:15:00
5:35 PM,88.2,31.8,13,29.78,10.0,WSW,26.5,35.7,N/A,,Clear,240,2013-10-03 22:35:00
5:55 PM,87.8,31.6,13,29.78,10.0,WSW,24.2,31.1,N/A,,Clear,240,2013-10-03 22:55:00
6:15 PM,87.1,31.3,14,29.78,10.0,SW,20.7,28.8,N/A,,Clear,230,2013-10-03 23:15:00
6:35 PM,85.5,31.1,14,29.77,10.0,WSW,16.1,25.3,N/A,,Clear,240,2013-10-03 23:35:00
6:55 PM,85.1,31.1,14,29.77,10.0,SW,15.0,21.9,N/A,,Clear,230,2013-10-03 23:55:00
7:15 PM,83.1,32.4,16,29.77,10.0,SW,10.4,-,N/A,,Clear,230,2013-10-04 00:15:00
7:35 PM,80.4,34.0,19,29.78,10.0,SW,9.2,-,N/A,,Clear,230,2013-10-04 00:35:00
7:55 PM,78.3,34.5,21,29.78,10.0,SSW,6.9,-,N/A,,Clear,200,2013-10-04 00:55:00
8:15 PM,77.9,35.1,21,29.79,7.0,SSW,8.1,-,N/A,,Clear,210,2013-10-04 01:15:00
8:35 PM,77.0,36.0,23,29.79,7.0,SSW,9.2,-,N/A,,Clear,210,2013-10-04 01:35:00
8:55 PM,76.1,36.5,24,29.79,10.0,SSW,9.2,-,N/A,,Clear,210,2013-10-04 01:55:00
9:15 PM,69.6,37.4,31,29.79,4.0,SSW,6.9,-,N/A,,Haze,210,2013-10-04 02:15:00
9:35 PM,73.9,37.4,27,29.80,10.0,SSW,13.8,-,N/A,,Clear,210,2013-10-04 02:35:00
9:55 PM,73.9,37.6,27,29.80,10.0,SSW,10.4,-,N/A,,Clear,210,2013-10-04 02:55:00
10:15 PM,74.3,37.6,26,29.80,10.0,SW,12.7,-,N/A,,Clear,220,2013-10-04 03:15:00
10:35 PM,73.9,38.1,27,29.81,10.0,SW,19.6,23.0,N/A,,Clear,220,2013-10-04 03:35:00
11:35 PM,72.0,36.7,28,29.81,10.0,SW,18.4,21.9,N/A,,Clear,220,2013-10-04 04:35:00
11:55 PM,70.7,35.8,28,29.81,10.0,SW,16.1,20.7,N/A,,Clear,220,2013-10-04 04:55:00